GFSSGP_250_spd_132.txt.gz
Wind_Speed
65 64 58 52 48 51 53 57 57 54 49 48 39 37 31 16 15 35 29 25 25 26 24 24 21 21 18 17 14 14 14 17 19 20 21 22 22 22 22 22 22 20 16 13 12 13 17 21 25
69 68 62 56 52 52 56 58 62 57 53 51 47 50 40 33 22 35 31 31 28 25 23 23 25 25 21 18 17 14 14 17 20 22 21 22 25 24 20 20 21 20 16 13 15 17 21 25 28
73 71 67 59 54 54 58 62 61 60 58 54 50 54 52 46 36 33 30 31 30 28 26 24 29 30 25 21 21 19 17 17 20 23 26 24 25 25 22 19 19 18 14 15 19 23 25 26 30
76 74 72 63 58 60 64 61 60 62 61 60 57 53 48 46 43 40 32 27 28 26 34 28 31 28 24 23 23 25 21 18 21 23 26 27 27 24 24 21 18 16 17 19 23 26 28 30 33
83 78 73 69 63 64 68 65 62 64 63 62 60 52 46 47 42 42 37 32 26 32 28 36 32 33 31 26 26 27 26 25 24 26 28 28 29 28 26 26 24 23 24 26 28 30 32 35 36
87 81 76 71 68 68 69 71 69 64 63 64 62 58 51 51 42 39 36 34 31 31 35 38 36 38 39 30 31 29 27 30 30 28 27 30 31 32 31 29 28 28 29 31 32 33 35 36 37
89 88 80 75 74 72 74 77 74 65 61 64 62 61 60 59 51 44 42 35 38 40 39 42 36 35 42 40 37 33 31 32 32 31 31 31 33 35 35 34 33 33 34 35 35 36 36 38 38
94 91 85 78 76 76 82 83 78 70 69 61 62 59 60 59 54 50 48 36 28 43 41 38 35 37 39 41 34 33 31 32 32 31 32 34 34 36 37 37 38 37 37 39 40 39 40 41 42
99 93 87 82 81 80 84 87 79 72 70 64 57 57 57 54 53 55 55 50 46 39 44 50 41 33 41 45 40 37 35 33 32 33 34 35 38 38 38 39 39 41 41 39 40 41 42 43 45
100 94 90 88 90 89 90 87 80 76 72 66 61 56 56 53 55 57 55 55 46 41 40 39 42 38 44 46 44 42 37 37 35 36 38 40 40 41 41 41 41 41 41 43 43 43 43 45 46
100 96 96 97 96 97 96 90 88 85 78 72 66 60 54 53 56 63 61 60 49 44 47 48 49 49 49 43 47 46 43 41 40 40 42 43 46 45 44 44 42 41 43 43 44 44 45 46 48
105 101 101 103 103 101 98 96 93 91 83 78 72 66 55 53 57 60 61 55 53 55 55 58 59 62 57 50 53 46 46 46 46 47 48 50 52 49 46 46 44 41 41 42 42 44 46 49 51
110 106 108 107 106 103 103 101 93 95 85 81 75 71 61 37 52 63 64 59 54 47 42 51 55 60 63 60 56 51 50 54 55 57 55 55 56 54 49 46 46 44 42 43 45 47 49 53 54
95 113 113 114 108 108 104 104 101 95 92 84 81 77 68 67 52 39 59 59 61 57 41 48 45 45 49 49 51 59 61 60 62 54 49 51 51 52 48 46 46 45 45 47 48 49 52 55 55
98 97 115 113 111 112 110 107 100 99 96 91 87 82 75 76 60 53 56 41 41 62 69 64 54 45 50 42 45 53 58 59 54 51 51 50 48 50 48 46 45 44 46 47 49 52 54 57 61
104 99 98 112 116 113 116 106 104 104 100 97 94 89 84 84 87 72 65 66 51 51 59 55 58 56 67 51 44 32 31 35 45 56 53 56 56 52 53 52 48 45 50 52 53 57 61 63 64
102 100 99 102 111 122 119 109 109 108 105 102 101 97 92 89 89 82 75 74 71 58 56 56 54 51 37 45 45 38 30 38 51 49 50 52 52 54 57 51 50 50 53 57 60 62 65 66 64
85 100 108 106 106 119 124 112 112 113 110 108 104 102 98 96 91 86 82 85 82 73 59 50 33 41 41 44 33 46 46 40 43 46 37 33 36 43 52 54 53 55 58 61 61 59 63 66 71
72 94 108 115 115 115 122 122 113 116 114 110 110 105 104 100 98 93 90 88 87 86 84 61 63 55 46 43 42 25 36 34 45 45 37 44 45 52 57 59 61 63 65 66 65 67 73 74 74
63 80 100 115 118 116 113 118 121 116 117 113 111 109 105 106 103 99 96 96 92 91 89 73 71 63 61 61 36 33 39 47 43 37 45 57 60 63 69 71 74 75 70 71 73 76 79 79 83
64 66 83 102 117 120 116 112 119 121 115 114 112 109 108 106 106 102 101 96 93 92 90 81 79 82 80 68 52 49 54 60 59 54 58 64 68 74 76 77 85 87 87 85 87 86 92 76 78
62 62 74 88 106 115 122 113 107 114 122 120 114 112 106 109 107 108 106 101 96 94 91 88 87 86 85 82 74 76 67 64 76 83 88 83 86 91 89 91 92 90 88 88 90 83 75 68 73
59 71 74 79 90 105 113 114 112 114 113 114 114 110 112 111 112 110 113 111 103 98 94 93 90 92 93 92 87 85 71 74 92 86 89 98 94 96 100 102 99 104 104 96 96 86 82 80 84
69 70 69 73 78 81 96 109 116 113 108 109 110 115 113 115 113 111 113 114 108 102 99 98 97 97 97 97 93 92 84 91 90 92 95 91 99 101 98 98 98 97 99 103 92 84 86 86 84
59 58 61 62 62 69 84 92 100 113 114 113 108 108 114 119 117 119 118 110 109 107 105 104 100 104 102 106 99 101 104 105 104 104 103 99 99 97 103 105 103 98 96 83 74 85 89 90 87
50 54 54 55 65 72 75 69 84 97 113 116 112 111 110 112 114 120 119 115 109 109 111 109 112 107 107 111 111 107 115 116 114 112 110 108 99 100 101 91 85 89 97 91 92 101 91 85 89
43 39 50 60 67 66 61 64 74 76 89 104 113 113 110 107 105 105 109 117 116 113 113 112 109 110 109 114 109 97 111 116 112 108 109 111 108 108 104 97 95 101 102 105 108 101 92 94 97
43 49 43 44 54 58 54 60 66 66 70 81 97 108 110 112 107 103 103 104 111 115 115 113 113 115 114 114 116 119 117 115 112 117 118 112 110 111 112 109 111 106 107 98 95 98 97 103 101
38 26 29 39 42 47 51 53 59 65 69 79 82 88 97 103 105 106 107 106 104 105 110 116 115 114 114 115 115 117 116 119 122 120 122 114 110 105 106 108 99 105 98 110 111 111 104 109 110
22 22 27 35 35 36 39 35 44 53 56 68 79 80 81 86 92 92 102 106 104 102 103 104 106 109 114 114 115 114 116 117 114 116 109 115 105 111 114 112 108 100 109 109 112 108 111 113 115

GFSSGP_250_spd_135.txt.gz
Wind_Speed
66 63 61 59 55 52 56 59 57 57 56 51 47 47 42 38 34 33 33 32 30 27 22 23 22 22 23 21 21 18 15 13 13 14 16 19 19 20 22 22 20 21 22 20 17 13 16 20 24
72 68 64 62 56 55 58 60 62 58 59 56 49 46 46 46 44 33 33 31 29 26 22 25 23 24 22 22 22 21 18 15 15 16 16 19 22 24 24 24 19 18 19 19 13 17 21 24 27
77 73 69 64 60 58 62 63 62 62 62 59 50 41 44 49 42 43 37 29 29 27 23 25 24 22 23 23 25 24 22 19 18 18 19 21 22 24 25 23 20 20 18 16 18 21 23 28 30
82 80 72 66 63 64 69 66 62 62 64 61 55 48 43 43 33 34 28 29 32 30 26 26 26 23 25 25 27 28 26 22 22 22 22 22 24 27 27 26 23 22 23 22 24 26 29 32 34
89 83 76 68 65 69 73 70 63 62 62 64 58 52 48 42 39 32 26 30 30 34 35 27 29 28 25 25 29 30 28 26 28 29 26 25 26 28 31 29 29 27 25 26 28 31 32 35 36
91 85 78 71 70 74 74 74 69 65 61 61 63 57 56 49 42 41 38 37 35 32 29 28 26 31 27 26 32 34 36 34 32 32 28 27 27 27 29 32 32 33 33 33 33 33 35 36 38
94 90 83 78 78 79 78 77 73 70 61 60 61 63 58 58 54 52 52 47 48 39 34 37 37 36 35 35 38 39 39 43 41 34 30 30 30 29 30 31 33 36 37 38 38 39 39 39 40
99 96 87 81 81 82 84 81 78 73 63 58 61 62 63 59 53 51 51 51 53 44 39 35 36 36 36 33 36 39 41 42 35 34 32 32 34 33 31 34 36 35 38 40 42 41 40 40 41
102 97 90 86 85 86 86 85 81 76 72 65 60 62 62 65 58 54 55 50 50 46 44 41 43 40 43 41 37 37 42 42 41 40 39 36 35 37 39 37 37 38 39 41 42 42 43 42 42
103 98 94 91 92 91 92 89 85 82 76 68 65 61 61 61 63 63 59 53 55 53 51 48 44 41 44 48 46 41 43 46 48 41 38 38 38 40 41 43 44 43 40 41 42 41 42 41 41
104 100 98 97 97 98 98 91 89 88 82 74 68 65 62 58 61 66 65 62 57 55 49 45 45 47 48 53 51 42 43 45 47 47 43 46 45 45 46 48 48 44 42 42 44 43 41 40 40
105 103 101 97 99 102 100 96 88 92 88 82 74 70 66 60 61 61 61 64 64 60 61 58 47 49 48 50 51 49 50 43 43 47 58 55 46 53 53 51 47 45 42 43 45 44 43 43 43
91 110 107 100 101 103 104 101 93 91 91 87 81 76 72 68 61 59 58 60 60 61 61 59 55 51 47 50 55 60 60 56 57 65 62 56 55 53 52 47 43 42 41 44 46 46 46 45 45
88 104 113 111 105 103 104 104 100 95 94 91 86 81 76 71 65 58 55 51 58 59 58 58 60 59 62 60 57 48 44 43 49 49 61 64 52 50 48 48 46 44 46 45 45 45 46 47 49
94 94 115 111 112 107 107 104 99 100 96 94 92 88 80 75 69 59 51 59 54 56 56 54 59 58 47 41 48 46 53 56 46 40 46 47 44 47 49 47 47 49 55 50 48 46 48 51 53
100 98 95 112 111 111 112 98 99 104 101 98 95 92 87 82 76 68 69 66 36 60 61 68 62 57 56 55 52 44 51 39 41 39 38 35 41 43 45 46 44 46 52 52 51 51 53 55 57
99 97 94 100 114 113 111 103 103 107 106 103 99 97 92 88 83 77 79 72 60 63 62 71 69 70 63 58 55 58 51 55 46 44 43 44 31 33 47 40 37 39 46 48 47 48 54 57 59
77 97 99 99 104 112 110 109 110 109 108 107 105 101 98 95 91 85 86 82 68 64 70 70 67 67 67 68 64 55 61 58 45 48 51 43 34 30 39 49 50 44 44 51 51 58 64 66 67
67 84 101 105 108 107 107 112 113 114 110 109 109 107 103 100 97 94 88 86 81 69 73 67 58 58 55 53 54 53 60 53 52 44 50 52 43 38 50 51 51 50 54 60 71 69 68 60 66
63 72 88 102 111 110 111 115 119 119 115 112 112 112 107 105 102 98 93 95 91 85 74 80 72 67 62 59 49 55 43 40 43 39 46 47 45 44 49 56 57 58 61 70 77 85 85 90 90
60 65 73 83 109 116 114 111 111 114 116 116 114 111 112 108 107 104 100 98 100 93 93 90 82 81 76 73 68 65 65 51 52 54 51 42 52 51 45 54 61 70 72 81 84 84 76 90 92
68 69 72 78 97 108 117 111 110 110 114 119 115 111 109 112 110 110 107 106 105 103 99 100 88 89 86 82 85 87 81 77 75 72 61 56 59 58 53 65 69 77 84 79 83 79 86 89 88
71 74 78 82 86 97 107 115 113 112 108 107 115 116 113 113 117 113 113 113 111 105 102 97 94 90 90 91 93 94 89 84 86 89 76 82 81 82 70 70 74 74 82 88 87 96 96 94 88
71 81 83 81 79 83 85 102 105 115 114 109 110 115 119 115 116 119 119 119 112 107 106 105 103 95 95 95 97 95 94 94 93 94 89 85 86 85 80 84 88 91 91 92 88 83 84 86 82
78 82 79 78 76 67 68 85 88 109 116 116 114 110 114 118 117 120 123 121 115 111 108 108 105 103 102 104 101 101 99 97 98 96 91 88 85 82 84 81 80 85 91 92 92 95 90 86 92
67 71 70 70 65 64 77 74 80 103 109 114 113 113 111 114 120 122 120 117 115 113 112 110 109 109 109 107 105 102 98 100 101 99 95 98 91 90 88 82 84 92 87 87 92 96 98 103 107
66 63 65 66 65 74 71 77 74 80 91 103 110 115 116 112 108 111 115 119 114 114 112 111 110 110 112 109 111 112 110 102 103 104 103 104 99 92 92 90 93 92 97 100 103 100 107 102 106
64 64 60 59 67 65 64 69 65 67 72 82 94 106 113 115 112 109 111 112 115 112 107 107 110 116 112 114 112 113 114 112 110 107 107 107 105 104 103 106 107 112 112 110 110 119 113 116 106
58 56 54 55 59 61 56 56 55 53 58 64 75 89 98 107 113 113 109 106 108 111 113 115 115 116 118 116 110 109 104 107 108 109 108 112 116 117 120 118 121 121 121 125 125 121 114 109 118
57 53 49 46 48 50 46 46 45 46 43 51 62 70 79 88 92 106 109 108 106 107 108 111 113 117 121 122 121 119 117 114 113 113 113 112 115 118 121 123 126 125 127 123 122 122 121 124 126

GFSSGP_250_spd_138.txt.gz
Wind_Speed
69 67 60 60 58 51 51 56 59 55 50 47 46 44 41 37 36 33 31 29 27 26 26 26 23 22 20 18 16 17 19 21 19 16 14 14 16 19 21 22 22 18 16 18 19 16 15 20 22
73 72 66 62 58 56 55 56 60 60 54 50 47 45 43 42 38 36 34 31 28 27 28 25 23 24 21 21 17 21 22 22 20 18 17 17 21 23 22 23 23 20 20 20 19 18 20 23 26
79 76 71 64 58 60 60 59 58 59 61 55 50 49 46 43 42 41 39 35 32 30 30 29 28 25 24 21 19 21 23 22 23 23 21 22 22 22 24 25 26 26 25 24 23 23 26 28 29
83 79 75 68 63 69 66 63 60 58 61 59 54 53 50 49 48 45 44 39 34 35 35 32 28 24 25 23 24 22 24 26 27 27 23 25 29 31 32 30 29 29 28 28 28 27 27 29 31
89 84 78 70 69 71 71 69 62 59 59 61 59 58 52 51 52 50 50 47 44 38 35 34 34 29 29 29 27 27 26 27 27 26 28 30 32 33 32 32 34 35 34 33 33 33 34 34 35
91 87 81 73 75 77 75 74 67 62 61 61 62 58 56 53 52 51 48 44 44 45 41 39 36 38 33 32 31 28 31 28 31 31 33 35 38 37 34 37 38 37 37 37 37 37 37 39 39
86 90 84 82 81 82 78 78 74 66 64 61 64 61 57 51 54 53 51 46 42 39 38 36 34 33 33 32 34 33 34 32 34 34 34 37 38 36 36 42 40 39 40 37 37 39 41 41 40
85 88 89 84 84 86 84 82 82 72 68 66 64 65 61 60 52 53 49 47 41 42 41 38 36 37 35 39 38 36 37 35 36 34 35 38 36 44 46 40 38 42 41 41 40 41 42 39 38
87 86 84 89 89 89 90 87 85 78 73 69 64 66 68 63 61 55 53 52 46 43 45 41 41 42 39 39 37 37 39 40 37 36 36 37 43 49 44 40 42 46 46 48 47 42 42 41 39
87 86 83 94 95 95 95 91 88 85 80 72 67 67 67 67 65 63 62 58 53 51 53 51 51 47 42 41 37 39 42 44 43 41 37 37 44 49 46 45 47 47 50 50 45 42 39 40 41
82 85 88 98 99 99 100 95 93 89 85 79 72 68 68 70 70 71 68 66 56 55 55 57 52 45 43 40 42 40 42 46 41 42 41 41 46 47 51 47 47 55 52 51 44 40 39 41 42
86 85 89 99 104 101 105 102 95 93 89 85 79 73 70 68 70 73 72 67 63 61 57 56 54 53 49 55 46 43 51 49 47 45 44 47 51 50 50 49 56 55 54 53 48 44 43 45 43
91 87 89 98 106 106 108 105 100 94 91 88 85 80 75 71 68 69 70 73 69 65 63 60 58 54 52 52 48 49 50 54 50 47 50 52 49 46 47 47 54 53 52 48 45 44 47 48 48
96 94 91 95 108 109 107 109 104 95 94 93 89 85 80 77 72 69 70 71 73 71 67 65 60 58 56 58 57 54 53 51 46 37 41 46 42 51 47 46 46 44 43 45 47 48 44 47 47
97 96 93 91 100 111 111 111 102 102 97 96 94 90 84 80 78 75 71 69 68 70 72 70 63 60 59 57 58 61 60 59 59 52 49 48 44 37 40 40 36 39 38 42 49 49 45 43 47
95 99 96 93 91 102 111 103 106 107 101 100 97 94 90 85 82 80 76 72 67 63 64 63 63 56 54 53 52 53 64 66 62 50 50 50 51 48 38 36 41 41 37 52 47 48 48 44 46
85 94 98 95 95 95 106 104 106 109 106 102 100 98 94 91 87 84 81 76 69 63 60 60 61 59 56 60 67 61 61 68 61 52 52 52 50 52 55 49 45 43 56 50 47 46 50 50 53
69 89 97 98 97 93 102 107 107 107 108 107 103 101 98 96 93 90 86 81 76 69 62 64 60 57 53 64 74 69 68 63 63 66 60 65 58 54 57 51 48 49 56 47 48 48 52 58 57
73 75 92 97 99 98 95 109 112 112 107 107 105 104 101 99 99 95 91 86 80 76 69 68 58 64 68 67 73 72 74 70 71 72 77 62 62 57 49 44 47 47 47 46 50 51 55 58 65
74 74 78 87 101 102 102 100 110 115 111 108 111 109 107 104 102 102 96 93 87 81 78 76 72 65 65 70 74 74 74 71 73 74 70 56 56 57 49 45 44 44 49 51 58 57 57 65 70
71 75 76 73 92 104 104 103 101 110 115 110 108 111 111 107 106 106 103 97 95 89 83 82 78 68 68 72 76 74 71 66 64 60 64 63 62 54 51 51 55 49 52 54 60 60 59 66 66
71 70 77 76 82 102 106 103 103 102 107 114 112 112 114 113 108 107 107 102 98 96 91 86 85 83 77 79 81 82 76 71 72 74 72 68 70 65 56 59 62 68 69 65 74 80 81 70 72
71 71 76 82 84 87 102 102 101 104 102 105 114 117 116 115 115 111 109 106 101 98 95 94 91 92 95 88 85 90 84 85 86 86 86 80 74 81 76 74 72 78 83 83 78 81 80 78 82
77 76 78 79 85 80 80 93 92 99 107 108 108 112 116 118 118 116 112 108 105 103 100 99 99 100 98 98 98 99 95 94 97 94 91 89 84 92 90 90 84 85 86 82 77 72 74 78 80
77 77 79 80 77 73 73 78 76 91 104 106 107 107 111 118 118 118 114 111 108 105 105 107 106 104 103 102 102 102 103 104 105 101 97 97 93 95 94 93 93 91 90 80 84 86 80 80 78
73 73 72 69 68 69 70 67 75 92 96 104 107 109 109 108 112 117 113 114 115 110 107 106 110 111 109 108 107 108 107 104 106 105 102 101 99 100 103 104 102 101 100 100 99 101 102 94 89
78 72 69 68 70 72 77 82 82 89 88 97 106 105 108 109 106 104 108 115 118 117 115 111 111 114 114 111 112 114 113 114 110 106 106 109 109 105 106 105 106 107 103 102 103 107 108 109 107
72 70 64 62 64 71 75 79 76 80 81 85 92 102 103 106 109 110 107 105 104 108 116 120 120 119 115 114 117 118 121 120 115 111 111 113 112 112 114 114 114 114 112 113 113 115 114 110 112
68 65 62 63 63 70 72 74 74 78 79 76 76 77 83 90 99 106 110 110 107 105 104 104 111 116 119 119 120 119 122 121 120 117 116 116 117 116 116 116 117 118 120 120 119 120 121 119 118
67 63 58 55 55 58 64 70 72 74 74 73 70 68 71 73 78 82 94 101 103 108 108 108 105 103 109 120 125 124 120 119 118 118 119 119 120 122 121 122 124 120 118 118 119 119 119 121 123

GFSSGP_250_spd_141.txt.gz
Wind_Speed
70 68 64 65 61 57 51 51 50 52 48 48 42 43 43 39 37 37 37 35 34 33 32 29 28 26 21 15 15 14 15 13 12 15 17 17 17 18 20 21 26 28 28 27 27 28 26 27 28
74 71 69 66 66 60 56 52 50 55 53 52 46 44 45 43 40 41 43 39 31 36 31 28 27 23 18 15 17 18 16 16 16 17 18 19 21 22 24 27 28 30 31 32 31 29 29 29 30
79 77 73 67 66 66 61 57 51 55 59 56 52 48 47 47 44 42 41 38 33 32 30 29 29 25 19 20 22 21 20 17 20 19 20 20 21 23 25 29 27 31 36 34 34 38 34 31 32
86 81 77 70 66 71 68 62 56 54 60 61 57 52 50 48 47 45 43 40 37 35 33 29 29 27 24 24 23 22 24 23 23 22 22 20 21 25 30 33 32 32 37 36 35 40 36 34 35
87 86 82 73 71 73 74 69 60 57 57 64 61 56 52 50 49 49 46 42 40 38 35 33 32 31 29 29 25 26 24 27 29 25 23 25 28 29 32 34 32 33 36 34 34 38 38 40 39
83 88 82 76 75 76 76 75 69 62 58 63 65 61 55 52 50 50 49 47 44 41 39 38 38 34 34 34 31 30 28 27 32 31 29 30 31 32 33 32 34 39 37 34 35 36 40 40 37
84 84 84 84 83 81 80 79 74 68 63 62 66 65 61 56 54 52 53 49 49 46 44 42 40 42 40 36 32 32 31 31 31 32 34 32 32 32 31 33 37 36 34 35 40 45 43 40 35
84 86 82 86 88 85 85 83 81 74 68 64 62 66 66 63 57 54 55 53 53 52 50 46 45 43 41 36 34 35 34 34 37 35 36 35 32 34 33 37 39 36 37 38 39 49 44 39 34
84 86 79 78 92 93 90 87 84 80 72 68 63 65 67 68 64 58 56 57 55 54 51 50 46 44 41 37 37 33 33 36 39 36 35 32 34 36 34 38 40 40 44 41 42 43 49 40 39
88 81 86 84 90 100 97 94 89 83 78 71 68 66 67 69 69 63 58 59 57 54 53 50 50 47 44 39 38 39 35 39 41 43 38 38 38 42 39 40 42 42 46 45 43 43 37 38 34
92 85 85 90 88 101 103 99 94 88 82 77 71 69 68 70 70 67 62 61 59 56 52 52 52 48 44 44 43 42 42 42 41 45 44 43 43 41 39 42 48 50 43 41 45 45 35 35 39
93 92 86 90 94 96 104 104 98 94 86 81 78 73 70 70 70 70 69 64 62 59 57 55 52 51 52 50 49 50 47 44 44 45 44 47 47 43 43 44 40 40 40 44 49 42 33 38 44
93 95 93 91 96 95 102 105 102 98 92 86 82 78 74 73 72 70 71 72 67 63 61 62 60 57 54 53 53 51 50 49 50 52 46 50 53 53 46 43 37 39 45 51 52 41 41 40 45
81 97 98 95 94 97 98 102 103 100 96 91 86 82 79 77 75 74 72 74 75 73 68 69 61 59 57 54 56 56 55 53 55 53 51 49 51 48 46 46 48 42 46 43 42 45 43 47 50
74 92 98 97 94 93 102 99 95 100 100 97 92 87 83 81 79 78 76 75 77 78 75 71 68 64 61 60 57 57 56 55 58 59 64 62 62 60 55 58 58 47 45 40 47 46 50 48 49
71 79 96 97 96 93 96 96 96 96 99 101 98 93 89 86 84 80 80 78 77 79 78 77 73 71 68 67 64 60 60 54 55 65 66 66 65 66 63 59 53 46 48 49 53 52 51 52 48
69 70 82 97 98 97 93 95 98 97 98 101 102 99 95 91 89 87 84 81 79 79 78 77 75 76 73 71 69 66 60 51 64 64 68 65 64 64 65 61 53 56 58 56 54 54 52 52 48
68 66 73 84 98 100 96 94 97 98 99 100 104 102 100 97 94 91 89 85 82 79 77 76 76 73 73 74 74 74 65 64 65 65 73 69 63 60 59 63 66 66 68 65 56 55 53 46 50
72 71 73 74 87 101 100 99 97 98 97 99 106 107 103 102 101 94 93 90 86 84 81 78 75 74 72 71 72 74 70 71 76 76 74 76 70 64 64 66 72 72 68 60 56 54 48 49 46
71 74 72 75 79 96 103 101 101 99 98 96 103 108 109 108 106 102 98 94 92 88 86 83 81 79 75 74 71 66 68 69 70 76 80 73 68 71 68 73 68 66 66 55 56 49 48 51 53
73 76 74 76 77 83 100 103 102 100 97 94 96 105 110 111 108 106 102 97 94 93 90 88 85 84 81 78 76 75 79 79 76 80 80 76 72 68 72 66 66 64 62 54 56 54 56 57 60
75 74 79 77 75 78 88 99 103 102 101 97 96 99 106 109 112 109 106 101 98 97 95 92 92 90 86 86 83 81 79 76 76 81 82 79 74 71 75 69 64 65 67 64 69 69 65 65 72
79 75 76 78 76 79 77 89 96 101 102 101 98 95 101 106 108 109 109 105 102 100 100 99 95 93 93 92 90 90 89 90 89 87 87 78 79 77 76 75 74 78 75 76 80 78 77 76 78
90 82 77 77 78 76 76 75 82 94 102 102 101 97 92 100 105 105 104 105 106 105 104 104 103 98 97 97 96 94 96 99 98 91 89 85 86 87 84 85 82 83 87 86 84 89 84 87 86
93 85 79 75 75 72 74 73 73 85 92 98 100 97 96 91 103 108 107 105 104 107 108 109 107 104 102 100 100 99 101 103 102 102 103 99 96 92 93 96 93 95 98 97 93 89 95 94 94
85 80 75 68 68 70 69 70 74 75 81 89 95 97 97 98 93 98 111 110 109 107 106 108 110 110 109 107 103 102 104 107 108 108 110 109 110 106 100 101 101 104 108 109 107 107 104 104 104
90 82 77 69 69 69 66 68 73 73 72 75 80 92 97 99 99 97 96 107 117 114 111 107 107 112 114 113 110 108 109 109 110 112 113 114 113 111 112 113 112 112 113 114 113 112 109 110 111
89 84 74 68 67 63 63 66 71 73 73 72 73 79 92 100 100 100 100 98 97 103 115 119 113 110 114 117 115 115 113 115 116 115 116 116 116 115 115 116 118 118 118 117 117 116 117 117 116
90 83 75 71 67 61 63 64 66 70 70 70 71 75 79 84 93 102 103 100 99 98 97 98 104 114 118 116 115 118 119 120 117 117 118 119 120 120 119 119 120 120 120 120 121 122 121 120 119
84 77 71 68 63 58 59 62 63 67 67 68 71 73 74 73 71 73 77 84 91 99 103 105 102 102 101 105 111 117 119 116 117 120 123 123 123 124 124 124 124 124 124 125 125 125 123 122 121

GFSSGP_250_spd_147.txt.gz
Wind_Speed
73 73 71 66 63 57 50 49 49 50 50 48 46 45 45 42 41 36 34 31 31 29 28 27 27 28 25 19 15 12 13 14 15 13 12 12 12 12 15 15 18 21 21 19 21 23 23 26 32
77 76 76 73 67 60 56 54 50 49 51 52 48 49 46 44 43 41 38 36 32 30 30 29 30 31 29 23 19 17 16 17 17 16 15 16 16 16 16 15 19 22 24 19 23 27 22 26 34
82 80 80 78 73 65 62 61 55 54 50 55 51 50 48 47 45 44 41 38 35 33 33 32 33 34 32 28 26 22 21 19 18 18 16 17 16 15 20 17 19 22 21 21 25 30 24 27 34
88 85 83 82 75 70 68 67 60 55 53 56 56 53 51 48 47 46 43 42 40 37 36 35 35 37 35 32 26 26 24 21 20 20 20 20 20 19 19 22 24 24 22 22 28 28 27 31 37
91 91 85 85 81 77 76 74 62 53 57 55 57 57 54 53 50 47 45 42 43 43 41 39 39 40 39 36 31 30 27 25 22 24 21 22 24 25 23 24 27 23 24 25 27 26 28 34 36
86 91 91 85 84 83 79 79 64 66 61 59 59 57 58 55 51 48 49 44 46 46 45 45 46 44 42 39 33 32 32 30 27 26 24 25 25 28 28 26 26 27 26 28 27 27 28 37 38
88 89 90 92 87 90 86 83 74 72 65 67 63 59 61 60 55 51 50 49 50 48 47 52 49 46 47 41 39 39 37 35 33 32 32 30 30 29 30 32 30 32 31 30 30 32 35 37 33
90 93 89 95 94 88 92 89 83 77 74 65 63 63 61 62 60 56 54 53 53 52 51 49 45 47 46 45 44 42 39 38 39 38 36 35 34 30 30 34 36 34 34 34 34 36 35 31 34
95 91 88 93 100 93 94 95 91 87 79 68 69 66 58 62 64 62 60 57 57 53 53 51 52 50 47 47 46 44 43 41 41 42 40 39 37 35 33 35 36 37 38 36 38 37 34 31 44
92 92 89 94 102 103 100 94 95 93 82 77 74 71 68 63 65 65 63 62 61 58 56 54 54 52 52 51 50 49 47 44 43 45 43 42 38 36 37 38 37 38 39 41 41 44 37 38 40
85 90 95 98 98 108 107 98 94 97 89 83 80 76 71 65 64 66 66 65 62 62 61 58 58 56 56 57 57 56 52 50 49 49 47 44 42 40 40 36 40 41 40 44 43 40 42 41 40
72 84 95 99 103 98 103 107 98 103 93 92 86 73 74 71 67 67 67 66 65 63 62 62 62 60 61 62 59 58 56 55 54 51 50 49 46 45 46 46 44 45 43 45 47 47 38 46 48
65 74 91 99 101 101 99 106 109 107 100 98 86 78 80 80 74 70 69 68 66 64 64 62 64 65 65 65 62 61 60 59 58 58 54 53 49 48 46 47 48 50 48 51 56 54 50 51 52
72 71 80 96 100 101 104 103 104 109 107 101 94 88 86 82 80 74 72 71 70 68 66 65 65 66 66 65 65 64 63 62 59 57 57 55 55 52 51 54 50 51 55 55 56 58 60 63 62
77 74 72 87 96 102 105 107 99 101 102 103 98 97 91 84 83 81 76 74 74 71 70 69 68 69 67 66 65 64 62 61 61 59 58 59 56 56 55 57 55 58 60 59 61 61 61 64 63
79 76 69 69 85 96 105 101 101 103 98 95 101 103 95 91 86 85 81 78 75 76 74 74 73 72 71 70 70 68 65 65 64 62 62 59 60 60 58 59 58 60 62 67 65 67 66 66 62
85 72 70 70 71 91 97 103 103 102 101 97 97 102 100 96 92 88 85 83 80 77 77 77 77 77 76 77 76 76 72 71 68 65 64 63 62 60 60 59 61 65 67 72 71 70 73 74 68
75 72 75 70 71 75 86 99 105 101 101 95 96 100 102 101 96 91 89 86 83 83 80 80 80 78 79 80 81 80 80 79 76 72 70 69 66 66 66 65 66 68 71 79 79 77 78 79 76
83 85 80 77 73 70 75 90 101 103 101 96 96 95 99 103 100 94 92 90 88 87 87 86 83 82 83 83 84 85 85 84 81 81 77 75 75 73 71 69 70 67 70 74 79 82 82 82 80
94 87 82 80 77 68 68 77 94 100 102 99 98 97 99 99 100 99 98 95 93 92 90 90 90 88 87 86 86 84 85 87 88 84 86 83 83 82 80 79 79 79 81 85 85 85 84 80 79
96 88 84 80 76 69 71 72 78 88 98 102 100 96 96 99 98 98 102 102 100 98 96 94 92 91 91 89 89 87 86 87 87 87 87 88 88 88 87 87 88 86 87 86 86 83 79 80 77
98 90 84 82 74 68 72 69 71 78 89 98 99 98 94 96 98 95 101 105 107 105 102 99 97 95 92 92 91 90 90 90 89 88 87 86 83 87 85 84 84 81 86 79 81 81 82 80 83
96 90 85 81 75 77 74 73 69 70 75 87 95 97 96 95 98 100 100 102 104 109 107 104 102 100 97 95 94 92 93 93 93 91 90 89 88 89 85 85 83 78 86 84 85 82 87 87 84
95 93 91 84 79 81 73 69 73 63 61 73 84 93 97 96 95 97 102 100 102 105 109 109 106 104 104 102 101 100 99 99 95 95 95 94 93 95 94 92 92 88 90 98 98 98 95 93 92
101 95 92 88 86 73 70 70 76 66 62 62 71 79 91 97 97 95 96 100 100 103 107 105 107 109 109 107 107 106 105 104 102 101 100 101 98 100 99 98 100 101 105 107 108 107 106 106 104
93 86 83 78 75 76 73 72 72 58 61 60 59 66 73 87 96 98 96 96 98 100 102 96 97 110 110 111 110 111 110 109 108 109 107 108 107 109 108 107 109 109 110 112 114 113 112 112 114
94 91 84 83 81 80 76 76 69 60 63 61 60 58 60 68 85 95 97 96 96 98 98 97 100 103 103 105 109 112 113 113 113 113 112 112 112 114 114 113 114 115 115 115 117 117 118 117 117
92 91 92 87 88 85 78 70 66 61 62 59 57 56 57 58 64 76 88 95 98 97 97 96 95 96 101 104 105 107 108 109 111 113 113 114 116 118 120 120 120 120 121 122 122 123 123 124 124
100 102 92 88 84 81 73 70 66 63 62 55 54 55 56 57 57 61 65 73 86 93 96 97 98 98 97 97 99 103 105 106 108 110 111 110 112 114 116 117 119 121 123 123 123 126 127 128 126
91 87 88 89 86 78 75 73 66 62 52 49 49 55 56 56 56 56 57 62 68 74 84 91 97 98 99 99 100 99 98 98 98 100 101 102 103 104 105 110 118 120 119 121 120 123 124 124 123